Location: East Arcadia
(34.1056°N, 118.0176°W)
Time: 22:51:41
(UTC+00:00)

DELTA 2 R/B (1) - Visible Passes

Search period start: 04 December 2023 00:00
Search period end: 14 December 2023 00:00
Orbit: 789 x 801 km, 39.6° (Epoch: 04 December)

Date Brightness Start Highest point End Pass type
(mag) Time Alt. Az. Time Alt. Az. Time Alt. Az.
04 Dec 4.7 02:48:34 10° SSW 02:52:39 31° SSE 02:52:39 31° SSE visible
05 Dec 4.6 02:17:27 10° SSW 02:22:14 30° SE 02:23:17 28° ESE visible
05 Dec 6.0 04:02:45 10° WSW 04:04:03 18° WSW 04:04:03 18° WSW visible
06 Dec 4.8 01:46:22 10° SSW 01:51:00 27° SE 01:53:54 18° E visible
06 Dec 4.9 03:31:27 10° WSW 03:34:39 36° WSW 03:34:39 36° WSW visible
07 Dec 5.0 01:15:19 10° SSW 01:19:46 25° SE 01:24:12 10° E visible
07 Dec 3.6 03:00:09 10° WSW 03:05:12 73° SW 03:05:12 73° SW visible
08 Dec 3.5 02:28:52 10° WSW 02:34:27 80° SSE 02:35:42 55° E visible
08 Dec 6.3 04:15:42 10° W 04:16:27 14° W 04:16:27 14° W visible
09 Dec 3.6 01:57:36 10° WSW 02:03:10 74° SSE 02:06:11 28° ENE visible
09 Dec 5.4 03:44:20 10° W 03:46:55 27° WNW 03:46:55 27° WNW visible
10 Dec 3.7 01:26:20 10° SW 01:31:53 69° SSE 01:36:37 14° ENE visible
10 Dec 4.3 03:12:59 10° W 03:17:21 46° NW 03:17:21 46° NW visible
11 Dec 3.8 02:41:39 10° W 02:47:08 56° NNW 02:47:46 53° NNE visible
12 Dec 3.8 02:10:18 10° W 02:15:49 58° NNW 02:18:10 33° NE visible
12 Dec 5.9 03:57:22 10° WNW 03:58:55 19° WNW 03:58:55 19° WNW visible
13 Dec 3.8 01:38:57 10° W 01:44:29 61° NNW 01:48:33 18° ENE visible
13 Dec 5.0 03:26:01 10° WNW 03:29:18 32° NW 03:29:18 32° NW visible
